Time,TemperatureF,DewpointF,PressureIn,WindDirection,WindDirectionDegrees,WindSpeedMPH,WindSpeedGustMPH,Humidity,HourlyPrecipIn,Conditions,Clouds,dailyrainin,SolarRadiationWatts/m^2,SoftwareType,DateUTC
2013-03-12 00:00:00,39.8,25.8,29.97,SW,229,3.0,6.0,57,0.00,,SKC,0.00,0.00,VWS V14.01,2013-03-12 06:00:00,
2013-03-12 00:04:00,40.2,26.2,29.92,WSW,249,2.0,5.0,57,0.00,,SKC,0.00,0.00,VWS V14.01,2013-03-12 06:04:00,
2013-03-12 00:10:00,40.1,26.5,29.92,WSW,248,3.0,5.0,58,0.00,,SKC,0.00,0.00,VWS V14.01,2013-03-12 06:10:00,
2013-03-12 00:15:00,39.7,26.1,29.91,SSW,210,3.0,10.0,58,0.00,,SKC,0.00,0.00,VWS V14.01,2013-03-12 06:15:00,
2013-03-12 00:16:00,39.9,26.3,29.92,SW,218,5.0,5.0,58,0.00,,SKC,0.00,0.00,VWS V14.01,2013-03-12 06:16:00,
2013-03-12 00:22:00,39.6,26.5,29.92,WSW,250,3.0,10.0,59,0.00,,SKC,0.00,0.00,VWS V14.01,2013-03-12 06:22:00,
2013-03-12 00:28:00,39.5,27.2,29.93,South,185,5.0,12.0,61,0.00,,SKC,0.00,0.00,VWS V14.01,2013-03-12 06:28:00,
2013-03-12 00:30:00,39.9,25.9,29.91,SW,232,2.0,10.0,57,0.00,,SKC,0.00,0.00,VWS V14.01,2013-03-12 06:30:00,
2013-03-12 00:34:00,39.4,27.5,29.92,SSW,210,6.0,7.0,62,0.00,,SKC,0.00,0.00,VWS V14.01,2013-03-12 06:34:00,
2013-03-12 00:40:00,39.3,27.8,29.93,SSW,205,6.0,12.0,63,0.00,,SKC,0.00,0.00,VWS V14.01,2013-03-12 06:40:00,
2013-03-12 00:45:00,40.2,25.8,29.91,WSW,241,5.0,12.0,56,0.00,,SKC,0.00,0.00,VWS V14.01,2013-03-12 06:45:00,
2013-03-12 00:46:00,39.0,27.9,29.93,SSW,212,6.0,12.0,64,0.00,,SKC,0.00,0.00,VWS V14.01,2013-03-12 06:46:00,
2013-03-12 00:51:00,38.9,28.1,29.93,SW,232,5.0,9.0,65,0.00,,SKC,0.00,0.00,VWS V14.01,2013-03-12 06:51:00,
2013-03-12 00:57:00,38.8,28.1,29.93,South,186,7.0,10.0,65,0.00,,SKC,0.00,0.00,VWS V14.01,2013-03-12 06:57:00,
2013-03-12 01:00:00,40.3,26.3,29.92,SW,217,3.0,11.0,57,0.00,,SKC,0.00,0.00,VWS V14.01,2013-03-12 07:00:00,
2013-03-12 01:03:00,38.6,28.6,29.94,SSW,210,4.0,10.0,67,0.00,,SKC,0.00,0.00,VWS V14.01,2013-03-12 07:03:00,
2013-03-12 01:09:00,38.5,28.9,29.93,SW,236,5.0,10.0,68,0.00,,SKC,0.00,0.00,VWS V14.01,2013-03-12 07:09:00,
2013-03-12 01:15:00,38.3,29.0,29.94,WSW,249,0.0,10.0,69,0.00,,SKC,0.00,0.00,VWS V14.01,2013-03-12 07:15:00,
2013-03-12 01:21:00,38.3,29.0,29.94,WSW,249,0.0,3.0,69,0.00,,SKC,0.00,0.00,VWS V14.01,2013-03-12 07:21:00,
2013-03-12 01:27:00,38.1,29.2,29.94,West,267,1.0,3.0,70,0.00,,SKC,0.00,0.00,VWS V14.01,2013-03-12 07:27:00,
2013-03-12 01:30:00,39.5,27.2,29.93,SW,221,5.0,12.0,61,0.00,,SKC,0.00,0.00,VWS V14.01,2013-03-12 07:30:00,
2013-03-12 01:33:00,37.9,29.4,29.95,West,267,0.0,1.0,71,0.00,,SKC,0.00,0.00,VWS V14.01,2013-03-12 07:33:00,
2013-03-12 01:39:00,37.7,29.8,29.95,West,275,0.0,3.0,73,0.00,,SKC,0.00,0.00,VWS V14.01,2013-03-12 07:39:00,
2013-03-12 01:45:00,37.5,30.3,29.95,West,275,0.0,3.0,75,0.00,,SKC,0.00,0.00,VWS V14.01,2013-03-12 07:45:00,
2013-03-12 01:53:00,37.2,30.4,29.97,West,275,2.0,3.0,76,0.00,,SKC,0.00,0.00,VWS V14.01,2013-03-12 07:53:00,
2013-03-12 01:59:00,36.8,30.6,29.97,West,275,3.0,3.0,78,0.00,,SKC,0.00,0.00,VWS V14.01,2013-03-12 07:59:00,
2013-03-12 02:00:00,38.7,28.7,29.93,SSW,202,10.0,12.0,67,0.00,,SKC,0.00,0.00,VWS V14.01,2013-03-12 08:00:00,
2013-03-12 02:05:00,36.4,30.5,29.97,WSW,244,1.0,3.0,79,0.00,,SKC,0.00,0.00,VWS V14.01,2013-03-12 08:05:00,
2013-03-12 02:11:00,36.0,30.4,29.97,SSE,149,6.0,6.0,80,0.00,,SKC,0.00,0.00,VWS V14.01,2013-03-12 08:11:00,
2013-03-12 02:15:00,38.3,29.0,29.94,WSW,250,0.0,10.0,69,0.00,,SKC,0.00,0.00,VWS V14.01,2013-03-12 08:15:00,
2013-03-12 02:17:00,35.5,30.9,29.97,SSE,154,1.0,5.0,83,0.00,,SKC,0.00,0.00,VWS V14.01,2013-03-12 08:17:00,
2013-03-12 02:23:00,35.2,30.9,29.98,ESE,119,3.0,5.0,84,0.00,,SKC,0.00,0.00,VWS V14.01,2013-03-12 08:23:00,
2013-03-12 02:29:00,34.9,30.9,29.97,SSE,150,4.0,11.0,85,0.00,,SKC,0.00,0.00,VWS V14.01,2013-03-12 08:29:00,
2013-03-12 02:30:00,38.0,29.5,29.95,West,267,0.0,3.0,71,0.00,,SKC,0.00,0.00,VWS V14.01,2013-03-12 08:30:00,
2013-03-12 02:35:00,34.6,30.9,29.97,SW,225,4.0,7.0,86,0.00,,SKC,0.00,0.00,VWS V14.01,2013-03-12 08:35:00,
2013-03-12 02:41:00,34.5,30.8,29.97,SW,218,2.0,11.0,86,0.00,,SKC,0.00,0.00,VWS V14.01,2013-03-12 08:41:00,
2013-03-12 02:45:00,37.5,30.3,29.95,West,275,0.0,3.0,75,0.00,,SKC,0.00,0.00,VWS V14.01,2013-03-12 08:45:00,
2013-03-12 02:47:00,34.6,32.5,29.97,South,176,7.0,10.0,92,0.00,,SKC,0.00,0.00,VWS V14.01,2013-03-12 08:47:00,
2013-03-12 02:53:00,34.7,31.0,29.97,SSE,147,3.0,10.0,86,0.00,,SKC,0.00,0.00,VWS V14.01,2013-03-12 08:53:00,
2013-03-12 02:59:00,34.7,31.0,29.97,ESE,123,1.0,10.0,86,0.00,,SKC,0.00,0.00,VWS V14.01,2013-03-12 08:59:00,
2013-03-12 03:00:00,36.6,30.4,29.97,West,275,0.0,3.0,78,0.00,,SKC,0.00,0.00,VWS V14.01,2013-03-12 09:00:00,
2013-03-12 03:06:00,34.6,30.9,29.97,South,178,2.0,5.0,86,0.00,,SKC,0.00,0.00,VWS V14.01,2013-03-12 09:06:00,
2013-03-12 03:12:00,34.4,30.6,29.98,SE,141,5.0,6.0,86,0.00,,SKC,0.00,0.00,VWS V14.01,2013-03-12 09:12:00,
2013-03-12 03:15:00,35.6,30.7,29.97,SSE,153,4.0,9.0,82,0.00,,SKC,0.00,0.00,VWS V14.01,2013-03-12 09:15:00,
2013-03-12 03:18:00,34.4,30.6,29.97,SE,142,2.0,10.0,86,0.00,,SKC,0.00,0.00,VWS V14.01,2013-03-12 09:18:00,
2013-03-12 03:24:00,34.4,30.6,29.97,SSE,156,2.0,10.0,86,0.00,,SKC,0.00,0.00,VWS V14.01,2013-03-12 09:24:00,
2013-03-12 03:30:00,34.4,30.6,29.97,South,171,4.0,10.0,86,0.00,,SKC,0.00,0.00,VWS V14.01,2013-03-12 09:30:00,
2013-03-12 03:36:00,34.6,30.6,29.96,SW,214,6.0,11.0,85,0.00,,SKC,0.00,0.00,VWS V14.01,2013-03-12 09:36:00,
2013-03-12 03:42:00,35.0,30.7,29.96,South,183,2.0,12.0,84,0.00,,SKC,0.00,0.00,VWS V14.01,2013-03-12 09:42:00,
2013-03-12 03:45:00,34.5,30.8,29.97,South,184,10.0,11.0,86,0.00,,SKC,0.00,0.00,VWS V14.01,2013-03-12 09:45:00,
2013-03-12 03:48:00,35.2,30.6,29.96,South,184,1.0,3.0,83,0.00,,SKC,0.00,0.00,VWS V14.01,2013-03-12 09:48:00,
2013-03-12 03:54:00,35.2,30.6,29.95,South,184,3.0,4.0,83,0.00,,SKC,0.00,0.00,VWS V14.01,2013-03-12 09:54:00,
2013-03-12 04:00:00,35.1,30.5,29.95,South,178,2.0,5.0,83,0.00,,SKC,0.00,0.00,VWS V14.01,2013-03-12 10:00:00,
2013-03-12 04:06:00,35.0,30.4,29.94,South,179,1.0,4.0,83,0.00,,SKC,0.00,0.00,VWS V14.01,2013-03-12 10:06:00,
2013-03-12 04:12:00,35.0,30.4,29.94,SSE,164,4.0,6.0,83,0.00,,SKC,0.00,0.00,VWS V14.01,2013-03-12 10:12:00,
2013-03-12 04:15:00,34.4,30.6,29.97,SSE,160,6.0,7.0,86,0.00,,SKC,0.00,0.00,VWS V14.01,2013-03-12 10:15:00,
2013-03-12 04:18:00,34.9,30.3,29.94,SSE,164,2.0,3.0,83,0.00,,SKC,0.00,0.00,VWS V14.01,2013-03-12 10:18:00,
2013-03-12 04:25:00,34.9,30.6,29.94,SSE,164,3.0,5.0,84,0.00,,SKC,0.00,0.00,VWS V14.01,2013-03-12 10:25:00,
2013-03-12 04:30:00,34.4,30.6,29.97,SSE,164,5.0,10.0,86,0.00,,SKC,0.00,0.00,VWS V14.01,2013-03-12 10:30:00,
2013-03-12 04:31:00,34.8,30.5,29.94,SSE,164,2.0,5.0,84,0.00,,SKC,0.00,0.00,VWS V14.01,2013-03-12 10:31:00,
2013-03-12 04:37:00,34.8,30.2,29.94,SSE,164,3.0,4.0,83,0.00,,SKC,0.00,0.00,VWS V14.01,2013-03-12 10:37:00,
2013-03-12 04:43:00,34.9,30.3,29.94,SSE,164,0.0,4.0,83,0.00,,SKC,0.00,0.00,VWS V14.01,2013-03-12 10:43:00,
2013-03-12 04:45:00,35.1,30.5,29.95,South,184,2.0,12.0,83,0.00,,SKC,0.00,0.00,VWS V14.01,2013-03-12 10:45:00,
2013-03-12 04:49:00,34.9,30.3,29.94,SSE,165,0.0,4.0,83,0.00,,SKC,0.00,0.00,VWS V14.01,2013-03-12 10:49:00,
2013-03-12 04:55:00,34.9,30.3,29.94,SSE,164,5.0,5.0,83,0.00,,SKC,0.00,0.00,VWS V14.01,2013-03-12 10:55:00,
2013-03-12 05:00:00,35.1,30.5,29.95,South,178,0.0,5.0,83,0.00,,SKC,0.00,0.00,VWS V14.01,2013-03-12 11:00:00,
2013-03-12 05:01:00,35.0,30.1,29.94,SE,141,3.0,6.0,82,0.00,,SKC,0.00,0.00,VWS V14.01,2013-03-12 11:01:00,
2013-03-12 05:06:00,35.0,30.1,29.96,SE,141,3.0,4.0,82,0.00,,SKC,0.00,0.00,VWS V14.01,2013-03-12 11:06:00,
2013-03-12 05:12:00,35.0,30.1,29.97,South,177,1.0,6.0,82,0.00,,SKC,0.00,0.00,VWS V14.01,2013-03-12 11:12:00,
2013-03-12 05:15:00,34.9,30.3,29.94,SSE,164,2.0,6.0,83,0.00,,SKC,0.00,0.00,VWS V14.01,2013-03-12 11:15:00,
2013-03-12 05:18:00,35.1,30.2,29.97,SE,145,3.0,5.0,82,0.00,,SKC,0.00,0.00,VWS V14.01,2013-03-12 11:18:00,
2013-03-12 05:24:00,35.1,30.2,29.97,SE,146,2.0,5.0,82,0.00,,SKC,0.00,0.00,VWS V14.01,2013-03-12 11:24:00,
2013-03-12 05:30:00,35.2,30.0,29.97,South,173,3.0,7.0,81,0.00,,SKC,0.00,0.00,VWS V14.01,2013-03-12 11:30:00,
2013-03-12 05:38:00,35.3,30.1,29.98,SE,139,2.0,5.0,81,0.00,,SKC,0.00,0.00,VWS V14.01,2013-03-12 11:38:00,
2013-03-12 05:44:00,35.4,30.2,29.98,SE,136,4.0,6.0,81,0.00,,SKC,0.00,0.00,VWS V14.01,2013-03-12 11:44:00,
2013-03-12 05:45:00,34.9,30.3,29.94,SSE,164,2.0,4.0,83,0.00,,SKC,0.00,0.00,VWS V14.01,2013-03-12 11:45:00,
2013-03-12 05:50:00,35.3,30.1,29.98,SE,136,0.0,4.0,81,0.00,,SKC,0.00,0.00,VWS V14.01,2013-03-12 11:50:00,
2013-03-12 05:56:00,35.3,30.1,29.98,SE,136,4.0,4.0,81,0.00,,SKC,0.00,0.00,VWS V14.01,2013-03-12 11:56:00,
2013-03-12 06:00:00,35.0,30.1,29.94,SE,141,3.0,6.0,82,0.00,,SKC,0.00,0.00,VWS V14.01,2013-03-12 12:00:00,
2013-03-12 06:02:00,35.3,29.8,30.00,SE,136,1.0,3.0,80,0.00,,SKC,0.00,0.00,VWS V14.01,2013-03-12 12:02:00,
2013-03-12 06:08:00,35.2,29.7,30.00,SE,136,0.0,4.0,80,0.00,,SKC,0.00,0.00,VWS V14.01,2013-03-12 12:08:00,
2013-03-12 06:14:00,35.2,29.7,30.00,SE,136,0.0,4.0,80,0.00,,SKC,0.00,0.00,VWS V14.01,2013-03-12 12:14:00,
2013-03-12 06:15:00,35.0,30.1,29.97,SSE,158,4.0,6.0,82,0.00,,SKC,0.00,0.00,VWS V14.01,2013-03-12 12:15:00,
2013-03-12 06:20:00,35.1,29.6,30.00,SE,136,0.0,0.0,80,0.00,,SKC,0.00,0.00,VWS V14.01,2013-03-12 12:20:00,
2013-03-12 06:26:00,35.0,29.5,30.00,SE,136,3.0,4.0,80,0.00,,SKC,0.00,0.00,VWS V14.01,2013-03-12 12:26:00,
2013-03-12 06:30:00,35.2,30.0,29.97,SSE,156,3.0,7.0,81,0.00,,SKC,0.00,0.00,VWS V14.01,2013-03-12 12:30:00,
2013-03-12 06:32:00,34.9,29.7,30.00,South,171,1.0,4.0,81,0.00,,SKC,0.00,0.00,VWS V14.01,2013-03-12 12:32:00,
2013-03-12 06:38:00,34.7,29.5,30.00,South,169,0.0,4.0,81,0.00,,SKC,0.00,0.00,VWS V14.01,2013-03-12 12:38:00,
2013-03-12 06:44:00,34.6,29.4,30.00,South,170,0.0,4.0,81,0.00,,SKC,0.00,0.00,VWS V14.01,2013-03-12 12:44:00,
2013-03-12 06:45:00,35.4,30.2,29.98,SE,136,4.0,6.0,81,0.00,,SKC,0.00,0.00,VWS V14.01,2013-03-12 12:45:00,
2013-03-12 06:50:00,34.4,29.2,30.00,South,170,0.0,1.0,81,0.00,,SKC,0.00,0.00,VWS V14.01,2013-03-12 12:50:00,
2013-03-12 06:56:00,34.4,29.2,30.00,South,171,0.0,1.0,81,0.00,,SKC,0.00,0.00,VWS V14.01,2013-03-12 12:56:00,
2013-03-12 07:00:00,35.3,30.1,30.00,SE,136,3.0,4.0,81,0.00,,SKC,0.00,0.00,VWS V14.01,2013-03-12 13:00:00,
2013-03-12 07:03:00,34.2,28.7,30.02,South,171,3.0,3.0,80,0.00,,SKC,0.00,0.00,VWS V14.01,2013-03-12 13:03:00,
2013-03-12 07:09:00,33.8,28.6,30.02,South,171,1.0,3.0,81,0.00,,SKC,0.00,0.00,VWS V14.01,2013-03-12 13:09:00,
2013-03-12 07:15:00,33.5,28.3,30.03,South,171,0.0,3.0,81,0.00,,SKC,0.00,0.00,VWS V14.01,2013-03-12 13:15:00,
2013-03-12 07:21:00,33.3,28.4,30.03,South,170,0.0,2.0,82,0.00,,SKC,0.00,0.00,VWS V14.01,2013-03-12 13:21:00,
2013-03-12 07:27:00,33.1,28.2,30.03,South,171,0.0,2.0,82,0.00,,SKC,0.00,0.00,VWS V14.01,2013-03-12 13:27:00,
2013-03-12 07:30:00,34.9,29.7,30.00,SSE,165,3.0,4.0,81,0.00,,SKC,0.00,0.00,VWS V14.01,2013-03-12 13:30:00,
2013-03-12 07:33:00,32.9,28.0,30.03,South,171,0.0,0.0,82,0.00,,SKC,0.00,5.00,VWS V14.01,2013-03-12 13:33:00,
2013-03-12 07:39:00,32.7,28.1,30.04,South,171,0.0,1.0,83,0.00,,SKC,0.00,7.00,VWS V14.01,2013-03-12 13:39:00,
2013-03-12 07:45:00,32.6,28.0,30.04,South,171,0.0,1.0,83,0.00,,SKC,0.00,9.00,VWS V14.01,2013-03-12 13:45:00,
2013-03-12 07:51:00,32.4,27.8,30.04,South,171,0.0,0.0,83,0.00,,SKC,0.00,11.00,VWS V14.01,2013-03-12 13:51:00,
2013-03-12 07:57:00,32.3,28.0,30.06,South,170,1.0,1.0,84,0.00,,SKC,0.00,21.00,VWS V14.01,2013-03-12 13:57:00,
2013-03-12 08:00:00,34.3,28.8,30.00,South,171,0.0,1.0,80,0.00,,SKC,0.00,0.00,VWS V14.01,2013-03-12 14:00:00,
2013-03-12 08:03:00,32.3,28.3,30.07,South,171,0.0,1.0,85,0.00,,SKC,0.00,26.00,VWS V14.01,2013-03-12 14:03:00,
2013-03-12 08:09:00,32.3,28.3,30.07,South,171,2.0,3.0,85,0.00,,SKC,0.00,37.00,VWS V14.01,2013-03-12 14:09:00,
2013-03-12 08:15:00,32.5,28.8,30.07,South,171,0.0,3.0,86,0.00,,SKC,0.00,49.00,VWS V14.01,2013-03-12 14:15:00,
2013-03-12 08:21:00,32.6,28.9,30.07,South,171,0.0,1.0,86,0.00,,SKC,0.00,47.00,VWS V14.01,2013-03-12 14:21:00,
2013-03-12 08:27:00,32.8,29.1,30.08,South,171,0.0,1.0,86,0.00,,SKC,0.00,47.00,VWS V14.01,2013-03-12 14:27:00,
2013-03-12 08:30:00,33.0,28.1,30.03,South,171,0.0,2.0,82,0.00,,SKC,0.00,0.00,VWS V14.01,2013-03-12 14:30:00,
2013-03-12 08:34:00,32.9,29.2,30.08,South,170,0.0,2.0,86,0.00,,SKC,0.00,53.00,VWS V14.01,2013-03-12 14:34:00,
2013-03-12 08:40:00,33.1,29.1,30.08,South,171,2.0,2.0,85,0.00,,SKC,0.00,56.00,VWS V14.01,2013-03-12 14:40:00,
2013-03-12 08:45:00,32.6,28.0,30.04,South,171,0.0,1.0,83,0.00,,SKC,0.00,9.00,VWS V14.01,2013-03-12 14:45:00,
2013-03-12 08:46:00,33.3,29.3,30.08,South,171,0.0,2.0,85,0.00,,SKC,0.00,77.00,VWS V14.01,2013-03-12 14:46:00,
2013-03-12 08:52:00,33.5,29.5,30.07,South,170,0.0,0.0,85,0.00,,SKC,0.00,83.00,VWS V14.01,2013-03-12 14:52:00,
2013-03-12 08:58:00,33.9,29.6,30.08,South,171,0.0,1.0,84,0.00,,SKC,0.00,98.00,VWS V14.01,2013-03-12 14:58:00,
2013-03-12 09:00:00,32.3,28.0,30.06,South,171,0.0,2.0,84,0.00,,SKC,0.00,23.00,VWS V14.01,2013-03-12 15:00:00,
2013-03-12 09:04:00,34.3,29.7,30.08,South,171,2.0,2.0,83,0.00,,SKC,0.00,83.00,VWS V14.01,2013-03-12 15:04:00,
2013-03-12 09:10:00,34.4,29.5,30.08,South,171,0.0,3.0,82,0.00,,SKC,0.00,98.00,VWS V14.01,2013-03-12 15:10:00,
2013-03-12 09:15:00,32.5,28.8,30.07,South,171,0.0,3.0,86,0.00,,SKC,0.00,53.00,VWS V14.01,2013-03-12 15:15:00,
2013-03-12 09:16:00,34.7,29.2,30.08,SSW,204,3.0,7.0,80,0.00,,SKC,0.00,120.00,VWS V14.01,2013-03-12 15:16:00,
2013-03-12 09:21:00,35.1,29.3,30.08,SSW,204,3.0,5.0,79,0.00,,SKC,0.00,155.00,VWS V14.01,2013-03-12 15:21:00,
2013-03-12 09:27:00,35.6,29.1,30.07,SSW,203,2.0,5.0,77,0.00,,SKC,0.00,155.00,VWS V14.01,2013-03-12 15:27:00,
2013-03-12 09:30:00,32.8,29.1,30.08,South,171,0.0,1.0,86,0.00,,SKC,0.00,51.00,VWS V14.01,2013-03-12 15:30:00,
2013-03-12 09:33:00,36.1,29.3,30.07,ESE,121,3.0,3.0,76,0.00,,SKC,0.00,153.00,VWS V14.01,2013-03-12 15:33:00,
2013-03-12 09:39:00,36.7,29.5,30.07,ESE,121,2.0,4.0,75,0.00,,SKC,0.00,162.00,VWS V14.01,2013-03-12 15:39:00,
2013-03-12 09:45:00,37.0,29.5,30.07,ESE,121,0.0,4.0,74,0.00,,SKC,0.00,146.00,VWS V14.01,2013-03-12 15:45:00,
2013-03-12 09:53:00,37.3,29.1,30.07,SSE,148,3.0,5.0,72,0.00,,SKC,0.00,142.00,VWS V14.01,2013-03-12 15:53:00,
2013-03-12 09:59:00,37.9,29.7,30.06,SSE,148,0.0,5.0,72,0.00,,SKC,0.00,401.00,VWS V14.01,2013-03-12 15:59:00,
2013-03-12 10:00:00,34.0,29.7,30.08,South,169,0.0,1.0,84,0.00,,SKC,0.00,102.00,VWS V14.01,2013-03-12 16:00:00,
2013-03-12 10:05:00,38.8,30.6,30.05,SSE,148,3.0,4.0,72,0.00,,SKC,0.00,510.00,VWS V14.01,2013-03-12 16:05:00,
2013-03-12 10:11:00,40.5,30.8,30.04,SSE,148,4.0,4.0,68,0.00,,SKC,0.00,520.00,VWS V14.01,2013-03-12 16:11:00,
2013-03-12 10:15:00,34.7,29.2,30.08,SSW,204,3.0,7.0,80,0.00,,SKC,0.00,120.00,VWS V14.01,2013-03-12 16:15:00,
2013-03-12 10:17:00,41.9,30.6,30.03,ESE,119,3.0,3.0,64,0.00,,SKC,0.00,543.00,VWS V14.01,2013-03-12 16:17:00,
2013-03-12 10:23:00,42.6,30.1,30.04,South,178,2.0,6.0,61,0.00,,SKC,0.00,568.00,VWS V14.01,2013-03-12 16:23:00,
2013-03-12 10:29:00,43.1,30.2,30.04,SE,135,4.0,6.0,60,0.00,,SKC,0.00,605.00,VWS V14.01,2013-03-12 16:29:00,
2013-03-12 10:30:00,36.0,29.2,30.07,SSW,203,0.0,5.0,76,0.00,,SKC,0.00,149.00,VWS V14.01,2013-03-12 16:30:00,
2013-03-12 10:35:00,44.0,30.2,30.01,SSE,152,3.0,6.0,58,0.00,,SKC,0.00,628.00,VWS V14.01,2013-03-12 16:35:00,
2013-03-12 10:41:00,44.5,29.8,30.00,South,171,4.0,6.0,56,0.00,,SKC,0.00,633.00,VWS V14.01,2013-03-12 16:41:00,
2013-03-12 10:45:00,37.1,29.6,30.07,ESE,121,3.0,4.0,74,0.00,,SKC,0.00,141.00,VWS V14.01,2013-03-12 16:45:00,
2013-03-12 10:47:00,45.7,29.6,29.97,South,184,5.0,7.0,53,0.00,,SKC,0.00,684.00,VWS V14.01,2013-03-12 16:47:00,
2013-03-12 10:54:00,46.4,30.7,29.97,SSE,153,4.0,7.0,54,0.00,,SKC,0.00,703.00,VWS V14.01,2013-03-12 16:54:00,
2013-03-12 11:00:00,46.7,28.6,29.97,SE,144,0.0,7.0,49,0.00,,SKC,0.00,127.00,VWS V14.01,2013-03-12 17:00:00,
2013-03-12 11:06:00,45.7,27.1,29.98,SSE,155,4.0,5.0,48,0.00,,SKC,0.00,155.00,VWS V14.01,2013-03-12 17:06:00,
2013-03-12 11:12:00,45.9,27.3,29.98,SSE,156,0.0,5.0,48,0.00,,SKC,0.00,747.00,VWS V14.01,2013-03-12 17:12:00,
2013-03-12 11:15:00,41.5,30.2,30.04,ESE,119,1.0,5.0,64,0.00,,SKC,0.00,533.00,VWS V14.01,2013-03-12 17:15:00,
2013-03-12 11:18:00,46.7,31.0,29.98,NE,40,4.0,12.0,54,0.00,,SKC,0.00,814.00,VWS V14.01,2013-03-12 17:18:00,
2013-03-12 11:24:00,47.2,30.5,29.98,NE,51,11.0,12.0,52,0.00,,SKC,0.00,870.00,VWS V14.01,2013-03-12 17:24:00,
2013-03-12 11:30:00,47.7,30.5,29.96,ENE,57,6.0,13.0,51,0.00,,SKC,0.00,844.00,VWS V14.01,2013-03-12 17:30:00,
2013-03-12 11:36:00,46.8,30.1,29.96,NE,39,3.0,13.0,52,0.00,,SKC,0.00,793.00,VWS V14.01,2013-03-12 17:36:00,
2013-03-12 11:43:00,47.0,30.3,29.96,NNE,17,5.0,13.0,52,0.00,,SKC,0.00,846.00,VWS V14.01,2013-03-12 17:43:00,
2013-03-12 11:45:00,45.3,30.5,29.99,South,171,1.0,6.0,56,0.00,,SKC,0.00,657.00,VWS V14.01,2013-03-12 17:45:00,
2013-03-12 11:49:00,47.6,29.9,29.95,NE,54,6.0,11.0,50,0.00,,SKC,0.00,587.00,VWS V14.01,2013-03-12 17:49:00,
2013-03-12 11:55:00,47.5,30.3,29.95,NE,41,6.0,12.0,51,0.00,,SKC,0.00,868.00,VWS V14.01,2013-03-12 17:55:00,
2013-03-12 12:00:00,46.5,28.9,29.97,SE,144,0.0,7.0,50,0.00,,SKC,0.00,169.00,VWS V14.01,2013-03-12 18:00:00,
2013-03-12 12:01:00,47.8,30.1,29.95,North,9,7.0,13.0,50,0.00,,SKC,0.00,863.00,VWS V14.01,2013-03-12 18:01:00,
2013-03-12 12:07:00,46.9,28.8,29.97,NNE,22,4.0,10.0,49,0.00,,SKC,0.00,863.00,VWS V14.01,2013-03-12 18:07:00,
2013-03-12 12:13:00,47.4,29.7,29.97,NNE,28,7.0,11.0,50,0.00,,SKC,0.00,900.00,VWS V14.01,2013-03-12 18:13:00,
2013-03-12 12:15:00,46.5,30.3,29.98,NE,34,2.0,10.0,53,0.00,,SKC,0.00,786.00,VWS V14.01,2013-03-12 18:15:00,
2013-03-12 12:19:00,48.6,29.8,29.95,NNW,333,6.0,12.0,48,0.00,,SKC,0.00,937.00,VWS V14.01,2013-03-12 18:19:00,
2013-03-12 12:26:00,48.8,29.5,29.96,NE,52,5.0,12.0,47,0.00,,SKC,0.00,809.00,VWS V14.01,2013-03-12 18:26:00,
2013-03-12 12:30:00,47.6,30.4,29.96,NNE,33,5.0,13.0,51,0.00,,SKC,0.00,856.00,VWS V14.01,2013-03-12 18:30:00,
2013-03-12 12:31:00,48.7,28.9,29.96,NNE,21,10.0,12.0,46,0.00,,SKC,0.00,830.00,VWS V14.01,2013-03-12 18:31:00,
2013-03-12 12:36:00,48.8,28.4,29.97,NNE,28,5.0,10.0,45,0.00,,SKC,0.00,835.00,VWS V14.01,2013-03-12 18:36:00,
2013-03-12 12:42:00,48.9,28.5,29.96,NE,50,6.0,12.0,45,0.00,,SKC,0.00,893.00,VWS V14.01,2013-03-12 18:42:00,
2013-03-12 12:45:00,47.5,30.8,29.95,NE,48,9.0,13.0,52,0.00,,SKC,0.00,587.00,VWS V14.01,2013-03-12 18:45:00,
2013-03-12 12:48:00,48.7,28.9,29.97,NNE,24,3.0,12.0,46,0.00,,SKC,0.00,812.00,VWS V14.01,2013-03-12 18:48:00,
2013-03-12 12:55:00,49.1,28.1,29.97,North,360,9.0,12.0,44,0.00,,SKC,0.00,847.00,VWS V14.01,2013-03-12 18:55:00,
2013-03-12 13:00:00,47.8,30.1,29.95,North,9,7.0,13.0,50,0.00,,SKC,0.00,863.00,VWS V14.01,2013-03-12 19:00:00,
2013-03-12 13:01:00,49.2,28.2,29.97,North,355,5.0,13.0,44,0.00,,SKC,0.00,830.00,VWS V14.01,2013-03-12 19:01:00,
2013-03-12 13:07:00,49.4,27.9,29.99,NNE,28,5.0,10.0,43,0.00,,SKC,0.00,888.00,VWS V14.01,2013-03-12 19:07:00,
2013-03-12 13:13:00,49.9,28.9,29.98,NE,55,3.0,10.0,44,0.00,,SKC,0.00,937.00,VWS V14.01,2013-03-12 19:13:00,
2013-03-12 13:15:00,47.9,29.7,29.97,North,355,7.0,11.0,49,0.00,,SKC,0.00,879.00,VWS V14.01,2013-03-12 19:15:00,
2013-03-12 13:19:00,50.1,29.0,29.98,NE,35,2.0,10.0,44,0.00,,SKC,0.00,872.00,VWS V14.01,2013-03-12 19:19:00,
2013-03-12 13:25:00,49.5,29.1,29.99,NE,48,3.0,12.0,45,0.00,,SKC,0.00,823.00,VWS V14.01,2013-03-12 19:25:00,
2013-03-12 13:30:00,48.7,28.9,29.96,NNE,21,10.0,12.0,46,0.00,,SKC,0.00,830.00,VWS V14.01,2013-03-12 19:30:00,
2013-03-12 13:31:00,49.5,28.5,29.98,NNE,32,5.0,12.0,44,0.00,,SKC,0.00,366.00,VWS V14.01,2013-03-12 19:31:00,
2013-03-12 13:36:00,49.4,29.0,29.98,NNE,15,8.0,10.0,45,0.00,,SKC,0.00,469.00,VWS V14.01,2013-03-12 19:36:00,
2013-03-12 13:42:00,49.3,28.3,29.99,NNE,22,5.0,13.0,44,0.00,,SKC,0.00,939.00,VWS V14.01,2013-03-12 19:42:00,
2013-03-12 13:45:00,48.5,27.6,29.97,NE,34,10.0,12.0,44,0.00,,SKC,0.00,840.00,VWS V14.01,2013-03-12 19:45:00,
2013-03-12 13:48:00,48.7,28.3,29.99,NNE,18,6.0,10.0,45,0.00,,SKC,0.00,301.00,VWS V14.01,2013-03-12 19:48:00,
2013-03-12 13:54:00,48.9,29.0,29.98,NE,38,6.0,13.0,46,0.00,,SKC,0.00,867.00,VWS V14.01,2013-03-12 19:54:00,
2013-03-12 14:00:00,49.9,28.9,29.98,NE,53,3.0,13.0,44,0.00,,SKC,0.00,315.00,VWS V14.01,2013-03-12 20:00:00,
2013-03-12 14:06:00,50.2,29.1,29.99,NNE,20,7.0,9.0,44,0.00,,SKC,0.00,448.00,VWS V14.01,2013-03-12 20:06:00,
2013-03-12 14:13:00,51.0,28.1,29.98,North,11,3.0,9.0,41,0.00,,SKC,0.00,814.00,VWS V14.01,2013-03-12 20:13:00,
2013-03-12 14:15:00,50.1,28.5,29.98,North,5,6.0,10.0,43,0.00,,SKC,0.00,907.00,VWS V14.01,2013-03-12 20:15:00,
2013-03-12 14:19:00,50.9,28.6,29.98,North,5,0.0,5.0,42,0.00,,SKC,0.00,601.00,VWS V14.01,2013-03-12 20:19:00,
2013-03-12 14:24:00,50.5,28.3,29.98,WSW,246,0.0,5.0,42,0.00,,SKC,0.00,571.00,VWS V14.01,2013-03-12 20:24:00,
2013-03-12 14:30:00,49.5,28.5,29.98,NNE,32,5.0,12.0,44,0.00,,SKC,0.00,366.00,VWS V14.01,2013-03-12 20:30:00,
2013-03-12 14:31:00,50.4,27.0,29.99,NE,36,0.0,5.0,40,0.00,,SKC,0.00,629.00,VWS V14.01,2013-03-12 20:31:00,
2013-03-12 14:36:00,50.3,26.9,29.99,North,349,0.0,5.0,40,0.00,,SKC,0.00,439.00,VWS V14.01,2013-03-12 20:36:00,
2013-03-12 14:41:00,50.0,26.6,29.99,East,101,0.0,5.0,40,0.00,,SKC,0.00,657.00,VWS V14.01,2013-03-12 20:41:00,
2013-03-12 14:45:00,48.7,28.3,29.99,NNE,19,3.0,13.0,45,0.00,,SKC,0.00,274.00,VWS V14.01,2013-03-12 20:45:00,
2013-03-12 14:48:00,50.6,27.8,29.97,SSW,193,1.0,3.0,41,0.00,,SKC,0.00,496.00,VWS V14.01,2013-03-12 20:48:00,
2013-03-12 14:53:00,51.3,27.2,29.97,NE,52,2.0,5.0,39,0.00,,SKC,0.00,476.00,VWS V14.01,2013-03-12 20:53:00,
2013-03-12 14:59:00,51.5,27.4,29.97,NNE,31,0.0,6.0,39,0.00,,SKC,0.00,596.00,VWS V14.01,2013-03-12 20:59:00,
2013-03-12 15:00:00,49.9,28.9,29.98,NNE,17,4.0,13.0,44,0.00,,SKC,0.00,315.00,VWS V14.01,2013-03-12 21:00:00,
2013-03-12 15:05:00,51.6,26.2,29.97,SSE,166,4.0,5.0,37,0.00,,SKC,0.00,489.00,VWS V14.01,2013-03-12 21:05:00,
2013-03-12 15:12:00,51.7,27.6,29.96,NE,44,3.0,5.0,39,0.00,,SKC,0.00,698.00,VWS V14.01,2013-03-12 21:12:00,
2013-03-12 15:15:00,51.1,28.2,29.98,NNE,26,4.0,9.0,41,0.00,,SKC,0.00,550.00,VWS V14.01,2013-03-12 21:15:00,
2013-03-12 15:19:00,52.6,28.4,29.96,NNE,32,0.0,1.0,39,0.00,,SKC,0.00,803.00,VWS V14.01,2013-03-12 21:19:00,
2013-03-12 15:25:00,52.6,26.4,29.95,ENE,62,3.0,5.0,36,0.00,,SKC,0.00,628.00,VWS V14.01,2013-03-12 21:25:00,
2013-03-12 15:30:00,50.3,27.5,29.99,NE,36,0.0,5.0,41,0.00,,SKC,0.00,629.00,VWS V14.01,2013-03-12 21:30:00,
2013-03-12 15:31:00,52.4,26.2,29.96,NE,53,3.0,5.0,36,0.00,,SKC,0.00,675.00,VWS V14.01,2013-03-12 21:31:00,
2013-03-12 15:37:00,52.1,26.6,29.95,NE,51,0.0,4.0,37,0.00,,SKC,0.00,596.00,VWS V14.01,2013-03-12 21:37:00,
2013-03-12 15:43:00,52.1,26.6,29.96,NE,51,3.0,4.0,37,0.00,,SKC,0.00,290.00,VWS V14.01,2013-03-12 21:43:00,
2013-03-12 15:45:00,50.4,28.2,29.98,SSW,194,3.0,5.0,42,0.00,,SKC,0.00,691.00,VWS V14.01,2013-03-12 21:45:00,
2013-03-12 15:49:00,51.8,27.0,29.95,NE,51,0.0,2.0,38,0.00,,SKC,0.00,508.00,VWS V14.01,2013-03-12 21:49:00,
2013-03-12 15:56:00,51.8,25.7,29.95,NE,51,3.0,3.0,36,0.00,,SKC,0.00,483.00,VWS V14.01,2013-03-12 21:56:00,
2013-03-12 16:00:00,51.5,27.4,29.97,NNW,345,2.0,6.0,39,0.00,,SKC,0.00,529.00,VWS V14.01,2013-03-12 22:00:00,
2013-03-12 16:02:00,52.0,25.9,29.95,East,94,2.0,3.0,36,0.00,,SKC,0.00,615.00,VWS V14.01,2013-03-12 22:02:00,
2013-03-12 16:08:00,52.2,26.7,29.95,NE,37,3.0,4.0,37,0.00,,SKC,0.00,615.00,VWS V14.01,2013-03-12 22:08:00,
2013-03-12 16:14:00,52.6,25.8,29.93,NE,38,0.0,9.0,35,0.00,,SKC,0.00,626.00,VWS V14.01,2013-03-12 22:14:00,
2013-03-12 16:15:00,52.1,27.9,29.96,NNE,32,1.0,5.0,39,0.00,,SKC,0.00,807.00,VWS V14.01,2013-03-12 22:15:00,
2013-03-12 16:20:00,53.4,26.5,29.93,North,5,3.0,5.0,35,0.00,,SKC,0.00,601.00,VWS V14.01,2013-03-12 22:20:00,
2013-03-12 16:26:00,53.7,27.4,29.94,NW,306,2.0,8.0,36,0.00,,SKC,0.00,580.00,VWS V14.01,2013-03-12 22:26:00,
2013-03-12 16:30:00,52.4,26.2,29.96,NE,53,3.0,5.0,36,0.00,,SKC,0.00,675.00,VWS V14.01,2013-03-12 22:30:00,
2013-03-12 16:32:00,53.1,26.2,29.94,NE,42,4.0,4.0,35,0.00,,SKC,0.00,278.00,VWS V14.01,2013-03-12 22:32:00,
2013-03-12 16:39:00,52.4,26.2,29.94,NNW,336,2.0,4.0,36,0.00,,SKC,0.00,253.00,VWS V14.01,2013-03-12 22:39:00,
2013-03-12 16:44:00,52.2,26.7,29.95,North,360,2.0,4.0,37,0.00,,SKC,0.00,229.00,VWS V14.01,2013-03-12 22:44:00,
2013-03-12 16:45:00,51.9,26.5,29.96,NE,51,0.0,4.0,37,0.00,,SKC,0.00,332.00,VWS V14.01,2013-03-12 22:45:00,
2013-03-12 16:50:00,51.8,26.4,29.95,NE,44,4.0,5.0,37,0.00,,SKC,0.00,179.00,VWS V14.01,2013-03-12 22:50:00,
2013-03-12 16:56:00,51.1,25.8,29.95,NNE,24,1.0,7.0,37,0.00,,SKC,0.00,213.00,VWS V14.01,2013-03-12 22:56:00,
2013-03-12 17:00:00,51.9,26.5,29.95,East,94,2.0,6.0,37,0.00,,SKC,0.00,629.00,VWS V14.01,2013-03-12 23:00:00,
2013-03-12 17:02:00,50.6,26.0,29.96,NE,38,4.0,5.0,38,0.00,,SKC,0.00,236.00,VWS V14.01,2013-03-12 23:02:00,
2013-03-12 17:08:00,50.3,25.0,29.97,NE,42,5.0,6.0,37,0.00,,SKC,0.00,169.00,VWS V14.01,2013-03-12 23:08:00,
2013-03-12 17:14:00,50.0,25.4,29.96,NE,44,6.0,6.0,38,0.00,,SKC,0.00,178.00,VWS V14.01,2013-03-12 23:14:00,
2013-03-12 17:15:00,52.7,25.8,29.93,NE,38,0.0,9.0,35,0.00,,SKC,0.00,652.00,VWS V14.01,2013-03-12 23:15:00,
2013-03-12 17:20:00,49.7,25.1,29.96,NNE,22,2.0,7.0,38,0.00,,SKC,0.00,153.00,VWS V14.01,2013-03-12 23:20:00,
2013-03-12 17:26:00,49.4,24.9,29.97,NE,51,3.0,7.0,38,0.00,,SKC,0.00,125.00,VWS V14.01,2013-03-12 23:26:00,
2013-03-12 17:30:00,53.4,27.1,29.94,NNE,33,2.0,8.0,36,0.00,,SKC,0.00,221.00,VWS V14.01,2013-03-12 23:30:00,
2013-03-12 17:32:00,49.2,25.3,29.97,ENE,71,2.0,3.0,39,0.00,,SKC,0.00,120.00,VWS V14.01,2013-03-12 23:32:00,
2013-03-12 17:38:00,49.1,25.2,29.98,NE,53,5.0,5.0,39,0.00,,SKC,0.00,160.00,VWS V14.01,2013-03-12 23:38:00,
2013-03-12 17:45:00,49.1,25.2,29.98,NE,49,3.0,6.0,39,0.00,,SKC,0.00,160.00,VWS V14.01,2013-03-12 23:45:00,
2013-03-12 17:51:00,49.2,25.3,29.98,NE,45,1.0,4.0,39,0.00,,SKC,0.00,144.00,VWS V14.01,2013-03-12 23:51:00,
2013-03-12 17:58:00,49.1,25.8,29.98,NE,45,3.0,4.0,40,0.00,,SKC,0.00,149.00,VWS V14.01,2013-03-12 23:58:00,
2013-03-12 18:00:00,50.7,25.4,29.96,NNE,21,4.0,7.0,37,0.00,,SKC,0.00,225.00,VWS V14.01,2013-03-13 00:00:00,
2013-03-12 18:04:00,49.2,25.9,29.99,NE,44,4.0,4.0,40,0.00,,SKC,0.00,123.00,VWS V14.01,2013-03-13 00:04:00,
2013-03-12 18:10:00,49.0,25.1,30.00,NE,44,0.0,4.0,39,0.00,,SKC,0.00,113.00,VWS V14.01,2013-03-13 00:10:00,
2013-03-12 18:15:00,49.9,25.3,29.96,NE,42,6.0,6.0,38,0.00,,SKC,0.00,169.00,VWS V14.01,2013-03-13 00:15:00,
2013-03-12 18:16:00,48.9,25.7,30.00,NE,44,1.0,4.0,40,0.00,,SKC,0.00,86.00,VWS V14.01,2013-03-13 00:16:00,
2013-03-12 18:21:00,48.8,26.2,30.00,NE,44,0.0,4.0,41,0.00,,SKC,0.00,65.00,VWS V14.01,2013-03-13 00:21:00,
2013-03-12 18:27:00,48.7,26.1,30.00,NE,44,1.0,4.0,41,0.00,,SKC,0.00,56.00,VWS V14.01,2013-03-13 00:27:00,
2013-03-12 18:30:00,49.2,24.7,29.97,ENE,71,3.0,7.0,38,0.00,,SKC,0.00,125.00,VWS V14.01,2013-03-13 00:30:00,
2013-03-12 18:33:00,48.7,26.1,30.00,NE,44,0.0,0.0,41,0.00,,SKC,0.00,65.00,VWS V14.01,2013-03-13 00:33:00,
2013-03-12 18:39:00,48.5,25.9,30.00,NE,44,0.0,1.0,41,0.00,,SKC,0.00,51.00,VWS V14.01,2013-03-13 00:39:00,
2013-03-12 18:45:00,48.3,26.9,30.00,NE,44,0.0,1.0,43,0.00,,SKC,0.00,37.00,VWS V14.01,2013-03-13 00:45:00,
2013-03-12 18:52:00,48.0,27.1,30.00,NE,44,0.0,0.0,44,0.00,,SKC,0.00,39.00,VWS V14.01,2013-03-13 00:52:00,
2013-03-12 18:58:00,47.7,26.9,30.00,NE,44,0.0,0.0,44,0.00,,SKC,0.00,30.00,VWS V14.01,2013-03-13 00:58:00,
2013-03-12 19:00:00,49.2,25.9,29.98,NE,44,1.0,4.0,40,0.00,,SKC,0.00,139.00,VWS V14.01,2013-03-13 01:00:00,
2013-03-12 19:04:00,47.4,27.7,30.04,NE,44,0.0,1.0,46,0.00,,SKC,0.00,12.00,VWS V14.01,2013-03-13 01:04:00,
2013-03-12 19:10:00,46.8,27.1,30.04,NE,44,0.0,1.0,46,0.00,,SKC,0.00,0.00,VWS V14.01,2013-03-13 01:10:00,
2013-03-12 19:15:00,48.9,25.7,30.00,NE,44,1.0,4.0,40,0.00,,SKC,0.00,86.00,VWS V14.01,2013-03-13 01:15:00,
2013-03-12 19:16:00,46.1,26.5,30.04,NE,40,0.0,4.0,46,0.00,,SKC,0.00,0.00,VWS V14.01,2013-03-13 01:16:00,
2013-03-12 19:23:00,45.5,27.5,30.04,NE,40,0.0,0.0,49,0.00,,SKC,0.00,0.00,VWS V14.01,2013-03-13 01:23:00,
2013-03-12 19:29:00,45.0,27.5,30.06,NE,40,0.0,0.0,50,0.00,,SKC,0.00,0.00,VWS V14.01,2013-03-13 01:29:00,
2013-03-12 19:30:00,48.7,26.1,30.00,NE,44,0.0,4.0,41,0.00,,SKC,0.00,62.00,VWS V14.01,2013-03-13 01:30:00,
2013-03-12 19:35:00,44.3,27.3,30.05,NE,40,0.0,2.0,51,0.00,,SKC,0.00,0.00,VWS V14.01,2013-03-13 01:35:00,
2013-03-12 19:41:00,43.6,27.6,30.05,NE,40,0.0,2.0,53,0.00,,SKC,0.00,0.00,VWS V14.01,2013-03-13 01:41:00,
2013-03-12 19:45:00,48.3,28.0,30.00,NE,44,0.0,1.0,45,0.00,,SKC,0.00,37.00,VWS V14.01,2013-03-13 01:45:00,
2013-03-12 19:47:00,42.8,27.3,30.07,SE,137,1.0,1.0,54,0.00,,SKC,0.00,0.00,VWS V14.01,2013-03-13 01:47:00,
2013-03-12 19:53:00,41.9,26.5,30.07,SSE,149,1.0,4.0,54,0.00,,SKC,0.00,0.00,VWS V14.01,2013-03-13 01:53:00,
2013-03-12 19:59:00,41.1,26.2,30.08,SSE,149,0.0,4.0,55,0.00,,SKC,0.00,0.00,VWS V14.01,2013-03-13 01:59:00,
2013-03-12 20:00:00,47.6,27.3,30.00,NE,44,0.0,0.0,45,0.00,,SKC,0.00,21.00,VWS V14.01,2013-03-13 02:00:00,
2013-03-12 20:06:00,40.5,26.5,30.07,SSE,149,2.0,2.0,57,0.00,,SKC,0.00,0.00,VWS V14.01,2013-03-13 02:06:00,
2013-03-12 20:12:00,40.0,26.8,30.07,SSE,149,2.0,3.0,59,0.00,,SKC,0.00,0.00,VWS V14.01,2013-03-13 02:12:00,
2013-03-12 20:15:00,46.1,26.5,30.04,NE,40,0.0,4.0,46,0.00,,SKC,0.00,0.00,VWS V14.01,2013-03-13 02:15:00,
2013-03-12 20:18:00,39.5,26.8,30.07,SSE,149,0.0,2.0,60,0.00,,SKC,0.00,0.00,VWS V14.01,2013-03-13 02:18:00,
2013-03-12 20:24:00,39.1,26.8,30.09,SSE,149,0.0,2.0,61,0.00,,SKC,0.00,0.00,VWS V14.01,2013-03-13 02:24:00,
2013-03-12 20:30:00,38.7,26.8,30.09,SSE,149,2.0,3.0,62,0.00,,SKC,0.00,0.00,VWS V14.01,2013-03-13 02:30:00,
2013-03-12 20:37:00,38.2,27.1,30.10,SSE,149,1.0,2.0,64,0.00,,SKC,0.00,0.00,VWS V14.01,2013-03-13 02:37:00,
2013-03-12 20:43:00,37.8,27.1,30.10,SSE,149,3.0,4.0,65,0.00,,SKC,0.00,0.00,VWS V14.01,2013-03-13 02:43:00,
2013-03-12 20:45:00,43.0,27.5,30.07,SE,137,0.0,4.0,54,0.00,,SKC,0.00,0.00,VWS V14.01,2013-03-13 02:45:00,
2013-03-12 20:50:00,37.6,27.3,30.10,SSW,209,0.0,4.0,66,0.00,,SKC,0.00,0.00,VWS V14.01,2013-03-13 02:50:00,
2013-03-12 20:56:00,37.5,27.2,30.11,SSW,209,0.0,4.0,66,0.00,,SKC,0.00,0.00,VWS V14.01,2013-03-13 02:56:00,
2013-03-12 21:00:00,41.0,26.5,30.08,SSE,149,0.0,4.0,56,0.00,,SKC,0.00,0.00,VWS V14.01,2013-03-13 03:00:00,
2013-03-12 21:02:00,37.4,27.1,30.09,SSW,209,2.0,3.0,66,0.00,,SKC,0.00,0.00,VWS V14.01,2013-03-13 03:02:00,
2013-03-12 21:08:00,37.3,27.0,30.10,SSW,209,1.0,4.0,66,0.00,,SKC,0.00,0.00,VWS V14.01,2013-03-13 03:08:00,
2013-03-12 21:14:00,37.3,27.0,30.10,SE,144,2.0,4.0,66,0.00,,SKC,0.00,0.00,VWS V14.01,2013-03-13 03:14:00,
2013-03-12 21:15:00,39.7,26.6,30.07,SSE,149,1.0,3.0,59,0.00,,SKC,0.00,0.00,VWS V14.01,2013-03-13 03:15:00,
2013-03-12 21:20:00,37.3,27.0,30.10,WSW,248,3.0,3.0,66,0.00,,SKC,0.00,0.00,VWS V14.01,2013-03-13 03:20:00,
2013-03-12 21:26:00,37.3,27.0,30.10,SE,139,2.0,4.0,66,0.00,,SKC,0.00,0.00,VWS V14.01,2013-03-13 03:26:00,
2013-03-12 21:30:00,38.6,26.7,30.09,SSE,149,0.0,3.0,62,0.00,,SKC,0.00,0.00,VWS V14.01,2013-03-13 03:30:00,
2013-03-12 21:32:00,37.2,27.3,30.11,SSE,163,2.0,3.0,67,0.00,,SKC,0.00,0.00,VWS V14.01,2013-03-13 03:32:00,
2013-03-12 21:38:00,37.2,27.3,30.11,SSE,163,1.0,3.0,67,0.00,,SKC,0.00,0.00,VWS V14.01,2013-03-13 03:38:00,
2013-03-12 21:44:00,37.3,27.0,30.11,SSE,163,2.0,3.0,66,0.00,,SKC,0.00,0.00,VWS V14.01,2013-03-13 03:44:00,
2013-03-12 21:45:00,37.7,27.0,30.10,SSW,209,0.0,4.0,65,0.00,,SKC,0.00,0.00,VWS V14.01,2013-03-13 03:45:00,
2013-03-12 21:50:00,37.3,27.0,30.12,SSE,163,2.0,4.0,66,0.00,,SKC,0.00,0.00,VWS V14.01,2013-03-13 03:50:00,
2013-03-12 21:56:00,37.3,27.0,30.12,SSE,156,3.0,7.0,66,0.00,,SKC,0.00,0.00,VWS V14.01,2013-03-13 03:56:00,
2013-03-12 22:00:00,37.4,27.1,30.12,SSW,209,2.0,4.0,66,0.00,,SKC,0.00,0.00,VWS V14.01,2013-03-13 04:00:00,
2013-03-12 22:01:00,37.5,27.2,30.10,SSE,161,2.0,10.0,66,0.00,,SKC,0.00,0.00,VWS V14.01,2013-03-13 04:01:00,
2013-03-12 22:02:00,37.6,27.3,30.05,SSE,162,2.0,4.0,66,0.00,,SKC,0.00,0.00,VWS V14.01,2013-03-13 04:02:00,
2013-03-12 22:04:00,37.6,27.3,30.05,SSE,163,2.0,4.0,66,0.00,,SKC,0.00,0.00,VWS V14.01,2013-03-13 04:04:00,
2013-03-12 22:05:00,37.7,27.4,30.05,SSE,165,5.0,6.0,66,0.00,,SKC,0.00,0.00,VWS V14.01,2013-03-13 04:05:00,
2013-03-12 22:11:00,37.8,27.1,30.05,SSE,168,4.0,6.0,65,0.00,,SKC,0.00,0.00,VWS V14.01,2013-03-13 04:11:00,
2013-03-12 22:15:00,37.3,27.0,30.10,WSW,248,1.0,4.0,66,0.00,,SKC,0.00,0.00,VWS V14.01,2013-03-13 04:15:00,
2013-03-12 22:18:00,37.8,27.1,30.05,SSW,198,2.0,5.0,65,0.00,,SKC,0.00,0.00,VWS V14.01,2013-03-13 04:18:00,
2013-03-12 22:24:00,37.8,27.1,30.05,SSW,197,3.0,5.0,65,0.00,,SKC,0.00,0.00,VWS V14.01,2013-03-13 04:24:00,
2013-03-12 22:30:00,37.8,27.1,30.06,SSW,197,4.0,5.0,65,0.00,,SKC,0.00,0.00,VWS V14.01,2013-03-13 04:30:00,
2013-03-12 22:37:00,37.6,26.9,30.06,SSE,164,3.0,6.0,65,0.00,,SKC,0.00,0.00,VWS V14.01,2013-03-13 04:37:00,
2013-03-12 22:43:00,37.4,26.7,30.05,South,190,5.0,7.0,65,0.00,,SKC,0.00,0.00,VWS V14.01,2013-03-13 04:43:00,
2013-03-12 22:45:00,37.3,27.0,30.11,SSE,163,1.0,3.0,66,0.00,,SKC,0.00,0.00,VWS V14.01,2013-03-13 04:45:00,
2013-03-12 22:49:00,37.4,26.7,30.05,South,182,5.0,10.0,65,0.00,,SKC,0.00,0.00,VWS V14.01,2013-03-13 04:49:00,
2013-03-12 22:56:00,37.6,26.9,30.06,South,184,0.0,10.0,65,0.00,,SKC,0.00,0.00,VWS V14.01,2013-03-13 04:56:00,
2013-03-12 23:00:00,37.5,27.2,30.10,SSE,161,2.0,10.0,66,0.00,,SKC,0.00,0.00,VWS V14.01,2013-03-13 05:00:00,
2013-03-12 23:02:00,37.5,26.8,30.05,SSE,163,2.0,3.0,65,0.00,,SKC,0.00,0.00,VWS V14.01,2013-03-13 05:02:00,
2013-03-12 23:08:00,37.3,26.6,30.07,SSE,163,2.0,5.0,65,0.00,,SKC,0.00,0.00,VWS V14.01,2013-03-13 05:08:00,
2013-03-12 23:14:00,37.2,26.5,30.07,SSE,163,2.0,5.0,65,0.00,,SKC,0.00,0.00,VWS V14.01,2013-03-13 05:14:00,
2013-03-12 23:15:00,37.8,27.1,30.05,SSW,194,2.0,6.0,65,0.00,,SKC,0.00,0.00,VWS V14.01,2013-03-13 05:15:00,
2013-03-12 23:20:00,37.0,26.3,30.07,ESE,112,0.0,5.0,65,0.00,,SKC,0.00,0.00,VWS V14.01,2013-03-13 05:20:00,
2013-03-12 23:26:00,36.8,26.1,30.08,ESE,111,0.0,5.0,65,0.00,,SKC,0.00,0.00,VWS V14.01,2013-03-13 05:26:00,
2013-03-12 23:30:00,37.8,27.1,30.06,SSW,197,1.0,5.0,65,0.00,,SKC,0.00,0.00,VWS V14.01,2013-03-13 05:30:00,
2013-03-12 23:33:00,36.6,26.0,30.08,ESE,111,0.0,2.0,65,0.00,,SKC,0.00,0.00,VWS V14.01,2013-03-13 05:33:00,
2013-03-12 23:39:00,36.5,26.2,30.08,ESE,112,0.0,2.0,66,0.00,,SKC,0.00,0.00,VWS V14.01,2013-03-13 05:39:00,
2013-03-12 23:45:00,36.2,26.0,30.08,ESE,111,0.0,2.0,66,0.00,,SKC,0.00,0.00,VWS V14.01,2013-03-13 05:45:00,
2013-03-12 23:52:00,35.7,25.8,30.08,ESE,111,2.0,3.0,67,0.00,,SKC,0.00,0.00,VWS V14.01,2013-03-13 05:52:00,
2013-03-12 23:59:00,35.2,25.7,30.09,ESE,111,2.0,3.0,68,0.00,,SKC,0.00,0.00,VWS V14.01,2013-03-13 05:59:00,